Cloud_Cover
5 0 4 5 5 5 5 5 5 5 5 33 39 53 100 97 100 100 59 100 99 100 100 39 5 75 90 100 100 100 98 93 83 100 100 100 100 100 100 100 100 100 100 100 100 100 100 100 100 100 100 98 76 1
2 0 5 5 5 5 5 5 1 5 5 5 5 49 54 94 34 9 78 67 99 100 86 17 14 45 100 100 100 100 100 100 100 100 100 100 100 100 100 100 100 100 100 100 100 100 100 100 95 100 100 25 5 0
0 0 0 5 5 5 5 5 5 11 91 9 5 5 5 5 5 21 97 91 76 88 20 22 100 100 100 100 100 100 100 100 100 100 100 100 100 100 100 100 100 100 100 100 100 100 100 97 62 12 5 3 3 0
0 0 2 5 5 5 5 8 5 5 5 5 5 5 5 6 37 46 99 99 100 97 100 100 100 100 100 100 100 100 100 34 98 100 100 100 100 100 100 100 100 100 100 100 100 100 82 97 78 14 5 68 2 0
0 0 4 5 5 5 5 5 5 5 5 5 5 5 5 68 100 94 97 100 100 100 100 100 100 89 88 100 100 58 78 97 100 100 100 100 100 100 100 100 100 100 100 100 100 100 100 100 10 5 91 62 3 0
0 0 0 5 5 5 5 5 5 5 5 5 5 5 5 5 43 100 100 97 100 100 100 100 100 100 100 100 100 100 100 100 100 100 100 100 100 100 100 100 100 100 100 100 100 100 100 100 100 100 18 5 2 1
0 0 0 4 5 5 5 5 5 5 5 5 5 5 5 19 54 96 71 87 59 75 100 69 17 94 100 100 99 100 100 100 99 100 100 100 100 100 100 100 100 100 100 100 100 100 100 100 100 100 8 2 5 3
0 0 4 5 5 5 11 5 5 5 1 9 73 100 100 100 99 72 89 90 100 100 100 100 96 100 100 100 100 100 100 100 100 100 100 100 100 100 100 100 100 100 100 100 100 100 100 100 100 100 81 30 86 22
0 0 3 5 5 5 8 40 72 40 87 100 100 100 100 100 100 100 81 100 100 100 100 100 100 100 100 100 100 100 100 100 100 100 100 100 100 100 100 100 100 100 100 100 100 100 100 100 100 88 41 68 30 11
0 5 5 2 5 2 5 64 100 100 100 100 85 96 100 100 100 100 100 100 100 100 100 100 100 100 100 100 100 100 100 100 100 100 100 100 100 100 100 100 100 100 100 100 100 100 100 100 70 100 100 100 96 100
0 0 3 5 5 5 5 17 87 68 69 96 100 100 100 100 100 100 100 100 100 100 100 100 100 100 100 100 100 100 100 100 100 100 100 100 100 100 100 100 100 100 100 100 100 100 100 100 100 100 100 100 100 100
0 0 0 1 5 4 5 5 10 25 99 100 100 100 100 100 100 100 100 100 100 100 100 100 100 100 100 100 100 100 100 100 100 100 100 100 100 100 100 100 100 100 100 100 100 100 100 100 100 100 98 100 100 100
96 29 5 5 7 66 23 8 13 40 16 100 100 100 100 100 100 100 100 100 100 100 100 100 100 100 100 100 100 100 100 100 100 100 100 100 100 100 100 100 100 100 100 100 100 100 100 100 98 72 100 100 100 100
0 4 4 6 100 100 100 100 100 52 46 86 100 97 100 100 100 100 100 100 100 100 100 100 100 100 100 100 100 100 100 100 100 100 100 100 100 100 100 100 100 100 100 100 100 100 100 99 100 100 99 100 100 100
0 0 5 2 26 94 100 100 100 100 93 50 25 93 67 94 100 100 100 100 100 100 100 100 100 100 100 100 100 100 100 100 100 100 100 100 100 100 100 100 100 100 100 100 100 100 100 100 99 100 100 100 100 100
0 0 4 4 5 5 99 100 100 100 100 55 28 99 96 86 61 31 87 100 100 100 100 100 100 100 100 100 100 100 100 100 100 100 100 100 100 100 100 100 100 100 100 100 100 100 100 100 100 100 100 100 100 100
4 1 0 0 5 39 100 100 83 100 83 100 100 100 100 100 89 59 99 81 100 100 100 100 100 100 100 100 100 100 100 100 100 100 100 100 100 98 100 100 100 100 100 100 100 100 100 100 100 100 100 100 100 100
0 0 0 0 4 8 96 98 97 96 99 100 100 100 66 72 98 100 100 100 100 100 100 100 100 100 100 100 100 100 100 100 100 100 100 100 100 100 100 100 100 100 100 100 100 100 100 100 100 100 100 100 100 99
1 0 0 3 3 12 100 96 99 100 100 100 100 100 34 97 19 98 100 100 100 100 100 100 100 100 100 100 100 100 100 100 100 100 100 100 100 100 100 100 100 100 100 99 97 89 47 83 100 100 100 100 100 99
0 0 0 1 9 14 100 100 79 56 86 100 100 100 97 80 96 93 64 43 54 80 98 100 100 100 100 100 100 100 100 100 100 100 100 100 100 100 100 100 100 100 83 94 100 96 100 50 5 36 65 48 96 63
1 2 0 53 100 50 45 74 100 16 96 91 100 100 100 100 100 100 100 100 100 100 100 96 71 95 100 100 100 100 100 100 100 100 100 100 100 100 100 100 100 76 40 76 100 100 100 100 100 100 100 100 100 98
3 0 4 29 60 67 76 32 49 83 97 100 100 91 100 100 100 100 100 100 100 100 100 100 100 99 100 98 100 100 100 100 100 100 96 61 98 100 89 28 74 99 98 93 90 83 85 98 94 78 97 100 100 100
5 9 4 93 83 42 49 71 82 99 62 54 82 100 100 100 81 80 100 100 100 100 88 96 99 93 100 100 100 100 100 100 100 100 100 100 100 97 99 83 98 100 98 89 61 46 52 15 6 5 13 45 99 99
56 38 80 100 87 32 35 26 22 86 98 82 100 100 68 62 61 100 100 100 100 69 73 61 82 94 90 94 100 94 80 91 96 85 100 100 100 96 96 68 40 37 59 26 34 26 27 9 19 7 42 48 97 96
54 47 40 99 6 45 86 87 96 100 100 98 47 83 80 47 59 58 99 99 95 94 72 63 66 72 98 98 98 98 100 99 100 100 100 100 100 95 99 95 52 74 100 40 40 65 90 90 81 55 7 88 66 31
83 91 67 56 12 40 99 100 98 99 97 95 97 99 69 100 73 92 77 61 92 98 81 66 64 79 76 73 70 10 6 5 68 29 81 100 40 100 72 5 27 4 4 4 5 2 5 5 22 4 5 5 4 36
56 93 100 100 98 96 49 9 95 100 78 96 94 98 54 55 96 93 95 89 91 84 59 37 51 76 85 99 57 6 63 77 84 20 58 95 78 29 5 5 5 0 3 5 3 5 5 5 0 2 4 5 5 27
99 100 100 100 100 48 34 63 27 10 67 92 53 52 76 79 97 62 76 33 33 6 2 8 70 95 99 14 10 67 91 8 4 0 70 94 92 89 5 5 5 2 5 5 4 0 0 0 0 4 5 55 88 98
100 95 96 100 20 38 34 65 80 5 5 5 45 96 75 46 28 29 3 5 14 98 100 100 90 74 53 5 5 58 14 5 3 1 0 1 4 4 5 5 5 5 16 54 31 5 5 4 6 23 70 76 89 87
60 13 5 27 6 5 17 37 63 5 5 13 6 14 7 19 7 6 15 76 98 100 97 70 41 5 4 2 5 5 39 5 5 2 0 0 3 4 5 5 5 47 49 73 81 98 79 75 100 100 98 97 100 98
50 79 33 21 44 38 5 11 6 23 5 20 10 38 66 72 59 82 38 9 42 42 9 2 5 5 5 5 10 11 3 97 46 5 0 0 4 5 16 6 39 75 80 98 100 100 100 98 100 100 100 100 100 99
78 34 60 63 35 9 10 59 87 66 97 25 60 7 50 23 48 40 86 47 5 19 9 5 5 56 21 5 17 15 6 83 5 0 0 0 0 1 5 73 78 100 97 100 100 100 100 100 100 100 100 100 100 100
43 39 65 94 97 100 62 46 69 26 30 90 46 36 100 47 95 96 85 65 10 5 5 6 23 36 16 13 5 6 64 5 5 5 5 5 0 0 30 42 41 86 84 100 93 100 98 100 100 100 100 100 100 99